Weather History for KGCC - November, 2011

Change the Weather History Date:

Friday, November 4, 2011

  Actual Average Record
Temperature  
Mean Temperature 51 °F 38 °F  
Max Temperature 63 °F 51 °F 73 °F (1983)
Min Temperature 38 °F 25 °F -2 °F (1935)
Degree Days  
Heating Degree Days 14 27  
Month to date heating degree days 107 105  
Since 1 July heating degree days 792 1014  
Cooling Degree Days 0 0  
Month to date cooling degree days 0 0  
Year to date cooling degree days 561 502  
Growing Degree Days 1 (Base 50)    
Moisture  
Dew Point 21 °F    
Average Humidity 37    
Maximum Humidity 54    
Minimum Humidity 19    
Precipitation  
Precipitation 0.00 in 0.03 in 0.40 in (1948)
Month to date precipitation 0.05 0.10  
Year to date precipitation 16.04 13.04  
Sea Level Pressure  
Sea Level Pressure 29.59 in    
Wind  
Wind Speed 21 mph (SSW)    
Max Wind Speed 39 mph    
Max Gust Speed 54 mph    
Visibility 10 miles    
Events      
T = Trace of Precipitation, MM = Missing Value Source: NWS Daily Summary

Daily Weather History Graph

Daily Weather History Graph

Search for Another Location

Airport or City:

Trip Planner

Search our weather history database for the weather conditions in past years. The results will help you decide how hot, cold, wet, or windy it might be!

Date:

Astronomy

Nov. 04, 2011 Rise Set
Actual Time 7:43 AM MDT 5:47 PM MDT
Civil Twilight 7:12 AM MDT 6:18 PM MDT
Nautical Twilight 6:38 AM MDT 6:52 PM MDT
Astronomical Twilight 6:04 AM MDT 7:26 PM MDT
Moon 2:51 PM MDT (11/4) 1:45 AM MDT (11/4)
Length of Visible Light 11h 05m
Length of Day
10h 04m
Waxing Gibbous, 70% of the Moon is Illuminated
Nov 4
Waxing Gibbous
Nov 10
Full
Nov 18
Last Quarter
Nov 24
New
Dec 2
First Quarter

Hourly Weather History & Observations

Time (MDT) Temp. Windchill Dew Point Humidity Pressure Visibility Wind Dir Wind Speed Gust Speed Precip Events Conditions
12:53 AM 44.1 °F 34.4 °F 19.9 °F 38% 29.67 in 10.0 mi SW 27.6 mph 40.3 mph N/A   Clear
1:53 AM 45.0 °F 35.2 °F 19.9 °F 37% 29.65 in 10.0 mi SW 29.9 mph 41.4 mph N/A   Clear
2:53 AM 45.0 °F 36.2 °F 19.9 °F 37% 29.65 in 10.0 mi SW 24.2 mph 38.0 mph N/A   Clear
3:53 AM 43.0 °F 34.0 °F 19.9 °F 40% 29.65 in 10.0 mi SW 21.9 mph 29.9 mph N/A   Clear
4:53 AM 45.0 °F 35.4 °F 19.9 °F 37% 29.65 in 10.0 mi SW 28.8 mph 38.0 mph N/A   Clear
5:53 AM 45.0 °F 37.1 °F 19.0 °F 36% 29.66 in 10.0 mi SSW 19.6 mph 29.9 mph N/A   Clear
6:53 AM 44.1 °F 35.4 °F 19.9 °F 38% 29.66 in 10.0 mi SSW 21.9 mph 34.5 mph N/A   Clear
7:53 AM 45.0 °F 36.4 °F 19.0 °F 36% 29.66 in 10.0 mi SW 23.0 mph 36.8 mph N/A   Clear
8:53 AM 46.9 °F - 19.0 °F 33% 29.65 in 10.0 mi SSW 19.6 mph 36.8 mph N/A   Clear
9:53 AM 50.0 °F - 19.0 °F 29% 29.62 in 10.0 mi SSW 26.5 mph 33.4 mph N/A   Clear
10:53 AM 55.0 °F - 19.0 °F 24% 29.60 in 10.0 mi SSW 26.5 mph 39.1 mph N/A   Clear
11:53 AM 59.0 °F - 18.0 °F 20% 29.57 in 10.0 mi SSW 35.7 mph 46.0 mph N/A   Clear
12:53 PM 60.8 °F - 19.4 °F 20% 29.59 in 10.0 mi SSW 31.1 mph 41.4 mph N/A   Clear
1:53 PM 62.1 °F - 19.9 °F 20% 29.52 in 10.0 mi SW 26.5 mph 39.1 mph N/A   Clear
2:53 PM 63.0 °F - 19.9 °F 19% 29.53 in 10.0 mi SSW 20.7 mph 39.1 mph N/A   Clear
3:53 PM 62.1 °F - 21.0 °F 21% 29.52 in 10.0 mi SSW 24.2 mph 33.4 mph N/A   Clear
4:53 PM 60.1 °F - 21.0 °F 22% 29.52 in 10.0 mi South 17.3 mph 29.9 mph N/A   Clear
5:53 PM 54.0 °F - 21.9 °F 29% 29.52 in 10.0 mi SSW 15.0 mph - N/A   Clear
6:53 PM 42.1 °F 36.6 °F 21.9 °F 45% 29.57 in 10.0 mi South 9.2 mph - N/A   Clear
7:53 PM 46.0 °F 39.9 °F 23.0 °F 40% 29.55 in 10.0 mi South 13.8 mph - N/A   Clear
8:53 PM 44.1 °F 37.7 °F 24.1 °F 45% 29.54 in 10.0 mi South 12.7 mph - N/A   Clear
9:53 PM 42.1 °F 35.7 °F 25.0 °F 51% 29.53 in 10.0 mi South 11.5 mph - N/A   Clear
10:53 PM 39.0 °F 32.8 °F 25.0 °F 57% 29.50 in 10.0 mi South 9.2 mph - N/A   Clear
11:53 PM 42.1 °F 34.5 °F 26.1 °F 53% 29.46 in 10.0 mi South 15.0 mph - N/A   Clear